owner,sensor,date,latitude,longitude,vertical_datum,sea_water_practical_salinity,qcFlag 
COMPS,ioos:station:USF.COMPS:FHP:1,2014-04-01T03:00:00Z,28.1530,-82.8010,,8.866,1111122 
COMPS,ioos:station:USF.COMPS:FHP:1,2014-04-01T03:06:00Z,28.1530,-82.8010,,23.152,1111122 
COMPS,ioos:station:USF.COMPS:FHP:1,2014-04-01T03:12:00Z,28.1530,-82.8010,,23.872,1111122 
COMPS,ioos:station:USF.COMPS:FHP:1,2014-04-01T03:18:00Z,28.1530,-82.8010,,23.903,1111122 
COMPS,ioos:station:USF.COMPS:FHP:1,2014-04-01T03:24:00Z,28.1530,-82.8010,,23.925,1111122 
COMPS,ioos:station:USF.COMPS:FHP:1,2014-04-01T03:30:00Z,28.1530,-82.8010,,23.937,1111122 
COMPS,ioos:station:USF.COMPS:FHP:1,2014-04-01T03:36:00Z,28.1530,-82.8010,,23.97,1111122 
COMPS,ioos:station:USF.COMPS:FHP:1,2014-04-01T03:42:00Z,28.1530,-82.8010,,24.002,1111122 
COMPS,ioos:station:USF.COMPS:FHP:1,2014-04-01T03:48:00Z,28.1530,-82.8010,,24.033,1111122 
COMPS,ioos:station:USF.COMPS:FHP:1,2014-04-01T03:54:00Z,28.1530,-82.8010,,24.066,1111122 
COMPS,ioos:station:USF.COMPS:FHP:1,2014-04-01T04:00:00Z,28.1530,-82.8010,,24.074,1111122 
COMPS,ioos:station:USF.COMPS:FHP:1,2014-04-01T04:06:00Z,28.1530,-82.8010,,24.131,1111122 
COMPS,ioos:station:USF.COMPS:FHP:1,2014-04-01T04:12:00Z,28.1530,-82.8010,,24.138,1111122 
COMPS,ioos:station:USF.COMPS:FHP:1,2014-04-01T04:18:00Z,28.1530,-82.8010,,24.149,1111122 
COMPS,ioos:station:USF.COMPS:FHP:1,2014-04-01T04:24:00Z,28.1530,-82.8010,,24.173,1111122 
COMPS,ioos:station:USF.COMPS:FHP:1,2014-04-01T04:30:00Z,28.1530,-82.8010,,24.197,1111122 
COMPS,ioos:station:USF.COMPS:FHP:1,2014-04-01T04:36:00Z,28.1530,-82.8010,,24.205,1111122 
COMPS,ioos:station:USF.COMPS:FHP:1,2014-04-01T04:42:00Z,28.1530,-82.8010,,24.187,1111122 
COMPS,ioos:station:USF.COMPS:FHP:1,2014-04-01T04:48:00Z,28.1530,-82.8010,,24.17,1111122 
COMPS,ioos:station:USF.COMPS:FHP:1,2014-04-01T04:54:00Z,28.1530,-82.8010,,24.203,1111122 
COMPS,ioos:station:USF.COMPS:FHP:1,2014-04-01T05:00:00Z,28.1530,-82.8010,,24.198,1111122 
COMPS,ioos:station:USF.COMPS:FHP:1,2014-04-01T05:06:00Z,28.1530,-82.8010,,24.217,1111122 
COMPS,ioos:station:USF.COMPS:FHP:1,2014-04-01T05:12:00Z,28.1530,-82.8010,,24.243,1111122 
COMPS,ioos:station:USF.COMPS:FHP:1,2014-04-01T05:18:00Z,28.1530,-82.8010,,24.233,1111122 
COMPS,ioos:station:USF.COMPS:FHP:1,2014-04-01T05:24:00Z,28.1530,-82.8010,,24.246,1111122 
COMPS,ioos:station:USF.COMPS:FHP:1,2014-04-01T05:30:00Z,28.1530,-82.8010,,24.244,1111122 
COMPS,ioos:station:USF.COMPS:FHP:1,2014-04-01T05:36:00Z,28.1530,-82.8010,,24.328,1111122 
COMPS,ioos:station:USF.COMPS:FHP:1,2014-04-01T05:42:00Z,28.1530,-82.8010,,24.367,1111122 
COMPS,ioos:station:USF.COMPS:FHP:1,2014-04-01T05:48:00Z,28.1530,-82.8010,,24.396,1111122 
COMPS,ioos:station:USF.COMPS:FHP:1,2014-04-01T05:54:00Z,28.1530,-82.8010,,24.426,1111122 
COMPS,ioos:station:USF.COMPS:FHP:1,2014-04-01T06:00:00Z,28.1530,-82.8010,,24.442,1111122 
COMPS,ioos:station:USF.COMPS:FHP:1,2014-04-01T06:06:00Z,28.1530,-82.8010,,24.461,1111122 
COMPS,ioos:station:USF.COMPS:FHP:1,2014-04-01T06:12:00Z,28.1530,-82.8010,,24.54,1111122 
COMPS,ioos:station:USF.COMPS:FHP:1,2014-04-01T06:18:00Z,28.1530,-82.8010,,24.576,1111122 
COMPS,ioos:station:USF.COMPS:FHP:1,2014-04-01T06:24:00Z,28.1530,-82.8010,,24.613,1111122 
COMPS,ioos:station:USF.COMPS:FHP:1,2014-04-01T06:30:00Z,28.1530,-82.8010,,24.638,1111122 
COMPS,ioos:station:USF.COMPS:FHP:1,2014-04-01T06:36:00Z,28.1530,-82.8010,,24.652,1111122 
COMPS,ioos:station:USF.COMPS:FHP:1,2014-04-01T06:42:00Z,28.1530,-82.8010,,24.691,1111122 
COMPS,ioos:station:USF.COMPS:FHP:1,2014-04-01T06:48:00Z,28.1530,-82.8010,,24.743,1111122 
COMPS,ioos:station:USF.COMPS:FHP:1,2014-04-01T06:54:00Z,28.1530,-82.8010,,24.764,1111122 
COMPS,ioos:station:USF.COMPS:FHP:1,2014-04-01T07:00:00Z,28.1530,-82.8010,,24.763,1111122 
COMPS,ioos:station:USF.COMPS:FHP:1,2014-04-01T07:06:00Z,28.1530,-82.8010,,24.763,1111122 
COMPS,ioos:station:USF.COMPS:FHP:1,2014-04-01T07:12:00Z,28.1530,-82.8010,,24.775,1111122 
COMPS,ioos:station:USF.COMPS:FHP:1,2014-04-01T07:18:00Z,28.1530,-82.8010,,24.782,1111122 
COMPS,ioos:station:USF.COMPS:FHP:1,2014-04-01T07:24:00Z,28.1530,-82.8010,,24.81,1111122 
COMPS,ioos:station:USF.COMPS:FHP:1,2014-04-01T07:30:00Z,28.1530,-82.8010,,24.784,1111122 
COMPS,ioos:station:USF.COMPS:FHP:1,2014-04-01T07:36:00Z,28.1530,-82.8010,,24.712,1111122 
COMPS,ioos:station:USF.COMPS:FHP:1,2014-04-01T07:42:00Z,28.1530,-82.8010,,24.762,1111122 
COMPS,ioos:station:USF.COMPS:FHP:1,2014-04-01T07:48:00Z,28.1530,-82.8010,,24.683,1111122 
COMPS,ioos:station:USF.COMPS:FHP:1,2014-04-01T07:54:00Z,28.1530,-82.8010,,24.765,1111122 
COMPS,ioos:station:USF.COMPS:FHP:1,2014-04-01T08:00:00Z,28.1530,-82.8010,,24.796,1111122 
COMPS,ioos:station:USF.COMPS:FHP:1,2014-04-01T08:06:00Z,28.1530,-82.8010,,24.795,1111122 
COMPS,ioos:station:USF.COMPS:FHP:1,2014-04-01T08:12:00Z,28.1530,-82.8010,,24.731,1111122 
COMPS,ioos:station:USF.COMPS:FHP:1,2014-04-01T08:18:00Z,28.1530,-82.8010,,24.747,1111122 
COMPS,ioos:station:USF.COMPS:FHP:1,2014-04-01T08:24:00Z,28.1530,-82.8010,,24.627,1111122 
COMPS,ioos:station:USF.COMPS:FHP:1,2014-04-01T08:30:00Z,28.1530,-82.8010,,24.47,1111122 
COMPS,ioos:station:USF.COMPS:FHP:1,2014-04-01T08:36:00Z,28.1530,-82.8010,,24.53,1111122 
COMPS,ioos:station:USF.COMPS:FHP:1,2014-04-01T08:42:00Z,28.1530,-82.8010,,24.443,1111122 
COMPS,ioos:station:USF.COMPS:FHP:1,2014-04-01T08:48:00Z,28.1530,-82.8010,,24.34,1111122 
COMPS,ioos:station:USF.COMPS:FHP:1,2014-04-01T08:54:00Z,28.1530,-82.8010,,24.289,1111122 
COMPS,ioos:station:USF.COMPS:FHP:1,2014-04-01T09:00:00Z,28.1530,-82.8010,,24.231,1111122 
COMPS,ioos:station:USF.COMPS:FHP:1,2014-04-01T09:06:00Z,28.1530,-82.8010,,24.235,1111122 
COMPS,ioos:station:USF.COMPS:FHP:1,2014-04-01T09:12:00Z,28.1530,-82.8010,,24.327,1111122 
COMPS,ioos:station:USF.COMPS:FHP:1,2014-04-01T09:18:00Z,28.1530,-82.8010,,24.303,1111122 
COMPS,ioos:station:USF.COMPS:FHP:1,2014-04-01T09:24:00Z,28.1530,-82.8010,,24.351,1111122 
COMPS,ioos:station:USF.COMPS:FHP:1,2014-04-01T09:30:00Z,28.1530,-82.8010,,24.484,1111122 
COMPS,ioos:station:USF.COMPS:FHP:1,2014-04-01T09:36:00Z,28.1530,-82.8010,,24.398,1111122 
COMPS,ioos:station:USF.COMPS:FHP:1,2014-04-01T09:42:00Z,28.1530,-82.8010,,24.262,1111122 
COMPS,ioos:station:USF.COMPS:FHP:1,2014-04-01T09:48:00Z,28.1530,-82.8010,,24.165,1111122 
COMPS,ioos:station:USF.COMPS:FHP:1,2014-04-01T09:54:00Z,28.1530,-82.8010,,23.344,1111122 
COMPS,ioos:station:USF.COMPS:FHP:1,2014-04-01T10:00:00Z,28.1530,-82.8010,,18.046,1111122 
COMPS,ioos:station:USF.COMPS:FHP:1,2014-04-01T13:36:00Z,28.1530,-82.8010,,10.419,1111122 
COMPS,ioos:station:USF.COMPS:FHP:1,2014-04-01T13:42:00Z,28.1530,-82.8010,,22.088,1111122 
COMPS,ioos:station:USF.COMPS:FHP:1,2014-04-01T13:48:00Z,28.1530,-82.8010,,23.468,1111122 
COMPS,ioos:station:USF.COMPS:FHP:1,2014-04-01T13:54:00Z,28.1530,-82.8010,,23.559,1111122 
COMPS,ioos:station:USF.COMPS:FHP:1,2014-04-01T14:00:00Z,28.1530,-82.8010,,23.636,1111122 
COMPS,ioos:station:USF.COMPS:FHP:1,2014-04-01T14:06:00Z,28.1530,-82.8010,,23.675,1111122 
COMPS,ioos:station:USF.COMPS:FHP:1,2014-04-01T14:12:00Z,28.1530,-82.8010,,23.713,1111122 
COMPS,ioos:station:USF.COMPS:FHP:1,2014-04-01T14:18:00Z,28.1530,-82.8010,,23.75,1111122 
COMPS,ioos:station:USF.COMPS:FHP:1,2014-04-01T14:24:00Z,28.1530,-82.8010,,23.778,1111122 
COMPS,ioos:station:USF.COMPS:FHP:1,2014-04-01T14:30:00Z,28.1530,-82.8010,,23.816,1111122 
COMPS,ioos:station:USF.COMPS:FHP:1,2014-04-01T14:36:00Z,28.1530,-82.8010,,23.85,1111122 
COMPS,ioos:station:USF.COMPS:FHP:1,2014-04-01T14:42:00Z,28.1530,-82.8010,,23.89,1111122 
COMPS,ioos:station:USF.COMPS:FHP:1,2014-04-01T14:48:00Z,28.1530,-82.8010,,23.927,1111122 
COMPS,ioos:station:USF.COMPS:FHP:1,2014-04-01T14:54:00Z,28.1530,-82.8010,,23.941,1111122 
COMPS,ioos:station:USF.COMPS:FHP:1,2014-04-01T15:00:00Z,28.1530,-82.8010,,23.978,1111122 
COMPS,ioos:station:USF.COMPS:FHP:1,2014-04-01T15:06:00Z,28.1530,-82.8010,,23.998,1111122 
COMPS,ioos:station:USF.COMPS:FHP:1,2014-04-01T15:12:00Z,28.1530,-82.8010,,24.028,1111122 
COMPS,ioos:station:USF.COMPS:FHP:1,2014-04-01T15:18:00Z,28.1530,-82.8010,,24.038,1111122 
COMPS,ioos:station:USF.COMPS:FHP:1,2014-04-01T15:24:00Z,28.1530,-82.8010,,24.036,1111122 
COMPS,ioos:station:USF.COMPS:FHP:1,2014-04-01T15:30:00Z,28.1530,-82.8010,,24.047,1111122 
COMPS,ioos:station:USF.COMPS:FHP:1,2014-04-01T15:36:00Z,28.1530,-82.8010,,24.076,1111122 
COMPS,ioos:station:USF.COMPS:FHP:1,2014-04-01T15:42:00Z,28.1530,-82.8010,,24.094,1111122 
COMPS,ioos:station:USF.COMPS:FHP:1,2014-04-01T15:48:00Z,28.1530,-82.8010,,24.149,1111122 
COMPS,ioos:station:USF.COMPS:FHP:1,2014-04-01T15:54:00Z,28.1530,-82.8010,,24.225,1111122 
COMPS,ioos:station:USF.COMPS:FHP:1,2014-04-01T16:00:00Z,28.1530,-82.8010,,24.225,1111122 
COMPS,ioos:station:USF.COMPS:FHP:1,2014-04-01T16:06:00Z,28.1530,-82.8010,,24.338,1111122 
COMPS,ioos:station:USF.COMPS:FHP:1,2014-04-01T16:12:00Z,28.1530,-82.8010,,24.441,1111122 
COMPS,ioos:station:USF.COMPS:FHP:1,2014-04-01T16:18:00Z,28.1530,-82.8010,,24.495,1111122 
COMPS,ioos:station:USF.COMPS:FHP:1,2014-04-01T16:24:00Z,28.1530,-82.8010,,24.529,1111122 
COMPS,ioos:station:USF.COMPS:FHP:1,2014-04-01T16:30:00Z,28.1530,-82.8010,,24.483,1111122 
COMPS,ioos:station:USF.COMPS:FHP:1,2014-04-01T16:36:00Z,28.1530,-82.8010,,24.467,1111122 
COMPS,ioos:station:USF.COMPS:FHP:1,2014-04-01T16:42:00Z,28.1530,-82.8010,,24.367,1111122 
COMPS,ioos:station:USF.COMPS:FHP:1,2014-04-01T16:48:00Z,28.1530,-82.8010,,24.325,1111122 
COMPS,ioos:station:USF.COMPS:FHP:1,2014-04-01T16:54:00Z,28.1530,-82.8010,,24.352,1111122 
COMPS,ioos:station:USF.COMPS:FHP:1,2014-04-01T17:00:00Z,28.1530,-82.8010,,24.32,1111122 
COMPS,ioos:station:USF.COMPS:FHP:1,2014-04-01T17:06:00Z,28.1530,-82.8010,,24.297,1111122 
COMPS,ioos:station:USF.COMPS:FHP:1,2014-04-01T17:12:00Z,28.1530,-82.8010,,24.315,1111122 
COMPS,ioos:station:USF.COMPS:FHP:1,2014-04-01T17:18:00Z,28.1530,-82.8010,,24.351,1111122 
COMPS,ioos:station:USF.COMPS:FHP:1,2014-04-01T17:24:00Z,28.1530,-82.8010,,24.378,1111122 
COMPS,ioos:station:USF.COMPS:FHP:1,2014-04-01T17:30:00Z,28.1530,-82.8010,,24.416,1111122 
COMPS,ioos:station:USF.COMPS:FHP:1,2014-04-01T17:36:00Z,28.1530,-82.8010,,24.431,1111122 
COMPS,ioos:station:USF.COMPS:FHP:1,2014-04-01T17:42:00Z,28.1530,-82.8010,,24.461,1111122 
COMPS,ioos:station:USF.COMPS:FHP:1,2014-04-01T17:48:00Z,28.1530,-82.8010,,24.496,1111122 
COMPS,ioos:station:USF.COMPS:FHP:1,2014-04-01T17:54:00Z,28.1530,-82.8010,,24.513,1111122 
COMPS,ioos:station:USF.COMPS:FHP:1,2014-04-01T18:00:00Z,28.1530,-82.8010,,24.519,1111122 
COMPS,ioos:station:USF.COMPS:FHP:1,2014-04-01T18:06:00Z,28.1530,-82.8010,,24.524,1111122 
COMPS,ioos:station:USF.COMPS:FHP:1,2014-04-01T18:12:00Z,28.1530,-82.8010,,24.522,1111122 
COMPS,ioos:station:USF.COMPS:FHP:1,2014-04-01T18:18:00Z,28.1530,-82.8010,,24.531,1111122 
COMPS,ioos:station:USF.COMPS:FHP:1,2014-04-01T18:24:00Z,28.1530,-82.8010,,24.531,1111122 
COMPS,ioos:station:USF.COMPS:FHP:1,2014-04-01T18:30:00Z,28.1530,-82.8010,,24.528,1111122 
COMPS,ioos:station:USF.COMPS:FHP:1,2014-04-01T18:36:00Z,28.1530,-82.8010,,24.529,1111122 
COMPS,ioos:station:USF.COMPS:FHP:1,2014-04-01T18:42:00Z,28.1530,-82.8010,,24.532,1111122 
COMPS,ioos:station:USF.COMPS:FHP:1,2014-04-01T18:48:00Z,28.1530,-82.8010,,24.536,1111122 
COMPS,ioos:station:USF.COMPS:FHP:1,2014-04-01T18:54:00Z,28.1530,-82.8010,,24.547,1111122 
COMPS,ioos:station:USF.COMPS:FHP:1,2014-04-01T19:00:00Z,28.1530,-82.8010,,24.552,1111122 
COMPS,ioos:station:USF.COMPS:FHP:1,2014-04-01T19:06:00Z,28.1530,-82.8010,,24.574,1111122 
COMPS,ioos:station:USF.COMPS:FHP:1,2014-04-01T19:12:00Z,28.1530,-82.8010,,24.603,1111122 
COMPS,ioos:station:USF.COMPS:FHP:1,2014-04-01T19:18:00Z,28.1530,-82.8010,,24.614,1111122 
COMPS,ioos:station:USF.COMPS:FHP:1,2014-04-01T19:24:00Z,28.1530,-82.8010,,24.621,1111122 
COMPS,ioos:station:USF.COMPS:FHP:1,2014-04-01T19:30:00Z,28.1530,-82.8010,,24.625,1111122 
COMPS,ioos:station:USF.COMPS:FHP:1,2014-04-01T19:36:00Z,28.1530,-82.8010,,24.623,1111122 
COMPS,ioos:station:USF.COMPS:FHP:1,2014-04-01T19:42:00Z,28.1530,-82.8010,,24.625,1111122 
COMPS,ioos:station:USF.COMPS:FHP:1,2014-04-01T19:48:00Z,28.1530,-82.8010,,24.641,1111122 
COMPS,ioos:station:USF.COMPS:FHP:1,2014-04-01T19:54:00Z,28.1530,-82.8010,,24.637,1111122 
COMPS,ioos:station:USF.COMPS:FHP:1,2014-04-01T20:00:00Z,28.1530,-82.8010,,24.619,1111122 
COMPS,ioos:station:USF.COMPS:FHP:1,2014-04-01T20:06:00Z,28.1530,-82.8010,,24.451,1111122 
COMPS,ioos:station:USF.COMPS:FHP:1,2014-04-01T20:12:00Z,28.1530,-82.8010,,24.242,1111122 
COMPS,ioos:station:USF.COMPS:FHP:1,2014-04-01T20:18:00Z,28.1530,-82.8010,,24.115,1111122 
COMPS,ioos:station:USF.COMPS:FHP:1,2014-04-01T20:24:00Z,28.1530,-82.8010,,24.081,1111122 
COMPS,ioos:station:USF.COMPS:FHP:1,2014-04-01T20:30:00Z,28.1530,-82.8010,,24.101,1111122 
COMPS,ioos:station:USF.COMPS:FHP:1,2014-04-01T20:36:00Z,28.1530,-82.8010,,24.138,1111122 
COMPS,ioos:station:USF.COMPS:FHP:1,2014-04-01T20:42:00Z,28.1530,-82.8010,,24.156,1111122 
COMPS,ioos:station:USF.COMPS:FHP:1,2014-04-01T20:48:00Z,28.1530,-82.8010,,24.167,1111122 
COMPS,ioos:station:USF.COMPS:FHP:1,2014-04-01T20:54:00Z,28.1530,-82.8010,,24.177,1111122 
COMPS,ioos:station:USF.COMPS:FHP:1,2014-04-01T21:00:00Z,28.1530,-82.8010,,24.188,1111122 
COMPS,ioos:station:USF.COMPS:FHP:1,2014-04-01T21:06:00Z,28.1530,-82.8010,,24.2,1111122 
COMPS,ioos:station:USF.COMPS:FHP:1,2014-04-01T21:12:00Z,28.1530,-82.8010,,24.194,1111122 
COMPS,ioos:station:USF.COMPS:FHP:1,2014-04-01T21:18:00Z,28.1530,-82.8010,,24.191,1111122 
COMPS,ioos:station:USF.COMPS:FHP:1,2014-04-01T21:24:00Z,28.1530,-82.8010,,24.183,1111122 
COMPS,ioos:station:USF.COMPS:FHP:1,2014-04-01T21:30:00Z,28.1530,-82.8010,,24.161,1111122 
COMPS,ioos:station:USF.COMPS:FHP:1,2014-04-01T21:36:00Z,28.1530,-82.8010,,24.137,1111122 
COMPS,ioos:station:USF.COMPS:FHP:1,2014-04-01T21:42:00Z,28.1530,-82.8010,,23.63,1111122 
COMPS,ioos:station:USF.COMPS:FHP:1,2014-04-01T21:48:00Z,28.1530,-82.8010,,15.067,1111122 
COMPS,ioos:station:USF.COMPS:FHP:1,2014-04-02T03:36:00Z,28.1530,-82.8010,,11.296,1111122 
COMPS,ioos:station:USF.COMPS:FHP:1,2014-04-02T03:42:00Z,28.1530,-82.8010,,23.635,1111122 
COMPS,ioos:station:USF.COMPS:FHP:1,2014-04-02T03:48:00Z,28.1530,-82.8010,,24.626,1111122 
COMPS,ioos:station:USF.COMPS:FHP:1,2014-04-02T03:54:00Z,28.1530,-82.8010,,24.631,1111122 
COMPS,ioos:station:USF.COMPS:FHP:1,2014-04-02T04:00:00Z,28.1530,-82.8010,,24.638,1111122 
COMPS,ioos:station:USF.COMPS:FHP:1,2014-04-02T04:06:00Z,28.1530,-82.8010,,24.646,1111122 
COMPS,ioos:station:USF.COMPS:FHP:1,2014-04-02T04:12:00Z,28.1530,-82.8010,,24.67,1111122 
COMPS,ioos:station:USF.COMPS:FHP:1,2014-04-02T04:18:00Z,28.1530,-82.8010,,24.715,1111122 
COMPS,ioos:station:USF.COMPS:FHP:1,2014-04-02T04:24:00Z,28.1530,-82.8010,,24.753,1111122 
COMPS,ioos:station:USF.COMPS:FHP:1,2014-04-02T04:30:00Z,28.1530,-82.8010,,24.737,1111122 
COMPS,ioos:station:USF.COMPS:FHP:1,2014-04-02T04:36:00Z,28.1530,-82.8010,,24.797,1111122 
COMPS,ioos:station:USF.COMPS:FHP:1,2014-04-02T04:42:00Z,28.1530,-82.8010,,24.816,1111122 
COMPS,ioos:station:USF.COMPS:FHP:1,2014-04-02T04:48:00Z,28.1530,-82.8010,,24.862,1111122 
COMPS,ioos:station:USF.COMPS:FHP:1,2014-04-02T04:54:00Z,28.1530,-82.8010,,24.945,1111122 
COMPS,ioos:station:USF.COMPS:FHP:1,2014-04-02T05:00:00Z,28.1530,-82.8010,,24.923,1111122 
COMPS,ioos:station:USF.COMPS:FHP:1,2014-04-02T05:06:00Z,28.1530,-82.8010,,24.954,1111122 
COMPS,ioos:station:USF.COMPS:FHP:1,2014-04-02T05:12:00Z,28.1530,-82.8010,,25.017,1111122 
COMPS,ioos:station:USF.COMPS:FHP:1,2014-04-02T05:18:00Z,28.1530,-82.8010,,25.021,1111122 
COMPS,ioos:station:USF.COMPS:FHP:1,2014-04-02T05:24:00Z,28.1530,-82.8010,,25.027,1111122 
COMPS,ioos:station:USF.COMPS:FHP:1,2014-04-02T05:30:00Z,28.1530,-82.8010,,24.987,1111122 
COMPS,ioos:station:USF.COMPS:FHP:1,2014-04-02T05:36:00Z,28.1530,-82.8010,,24.963,1111122 
COMPS,ioos:station:USF.COMPS:FHP:1,2014-04-02T05:42:00Z,28.1530,-82.8010,,24.96,1111122 
COMPS,ioos:station:USF.COMPS:FHP:1,2014-04-02T05:48:00Z,28.1530,-82.8010,,24.964,1111122 
COMPS,ioos:station:USF.COMPS:FHP:1,2014-04-02T05:54:00Z,28.1530,-82.8010,,24.952,1111122 
COMPS,ioos:station:USF.COMPS:FHP:1,2014-04-02T06:00:00Z,28.1530,-82.8010,,24.982,1111122 
COMPS,ioos:station:USF.COMPS:FHP:1,2014-04-02T06:06:00Z,28.1530,-82.8010,,24.987,1111122 
COMPS,ioos:station:USF.COMPS:FHP:1,2014-04-02T06:12:00Z,28.1530,-82.8010,,25.057,1111122 
COMPS,ioos:station:USF.COMPS:FHP:1,2014-04-02T06:18:00Z,28.1530,-82.8010,,25.112,1111122 
COMPS,ioos:station:USF.COMPS:FHP:1,2014-04-02T06:24:00Z,28.1530,-82.8010,,25.163,1111122 
COMPS,ioos:station:USF.COMPS:FHP:1,2014-04-02T06:30:00Z,28.1530,-82.8010,,25.193,1111122 
COMPS,ioos:station:USF.COMPS:FHP:1,2014-04-02T06:36:00Z,28.1530,-82.8010,,25.206,1111122 
COMPS,ioos:station:USF.COMPS:FHP:1,2014-04-02T06:42:00Z,28.1530,-82.8010,,25.23,1111122 
COMPS,ioos:station:USF.COMPS:FHP:1,2014-04-02T06:48:00Z,28.1530,-82.8010,,25.296,1111122 
COMPS,ioos:station:USF.COMPS:FHP:1,2014-04-02T06:54:00Z,28.1530,-82.8010,,25.319,1111122 
COMPS,ioos:station:USF.COMPS:FHP:1,2014-04-02T07:00:00Z,28.1530,-82.8010,,25.353,1111122 
COMPS,ioos:station:USF.COMPS:FHP:1,2014-04-02T07:06:00Z,28.1530,-82.8010,,25.421,1111122 
COMPS,ioos:station:USF.COMPS:FHP:1,2014-04-02T07:12:00Z,28.1530,-82.8010,,25.437,1111122 
COMPS,ioos:station:USF.COMPS:FHP:1,2014-04-02T07:18:00Z,28.1530,-82.8010,,25.462,1111122 
COMPS,ioos:station:USF.COMPS:FHP:1,2014-04-02T07:24:00Z,28.1530,-82.8010,,25.484,1111122 
COMPS,ioos:station:USF.COMPS:FHP:1,2014-04-02T07:30:00Z,28.1530,-82.8010,,25.525,1111122 
COMPS,ioos:station:USF.COMPS:FHP:1,2014-04-02T07:36:00Z,28.1530,-82.8010,,25.533,1111122 
COMPS,ioos:station:USF.COMPS:FHP:1,2014-04-02T07:42:00Z,28.1530,-82.8010,,25.563,1111122 
COMPS,ioos:station:USF.COMPS:FHP:1,2014-04-02T07:48:00Z,28.1530,-82.8010,,25.572,1111122 
COMPS,ioos:station:USF.COMPS:FHP:1,2014-04-02T07:54:00Z,28.1530,-82.8010,,25.581,1111122 
COMPS,ioos:station:USF.COMPS:FHP:1,2014-04-02T08:00:00Z,28.1530,-82.8010,,25.6,1111122 
COMPS,ioos:station:USF.COMPS:FHP:1,2014-04-02T08:06:00Z,28.1530,-82.8010,,25.589,1111122 
COMPS,ioos:station:USF.COMPS:FHP:1,2014-04-02T08:12:00Z,28.1530,-82.8010,,25.618,1111122 
COMPS,ioos:station:USF.COMPS:FHP:1,2014-04-02T08:18:00Z,28.1530,-82.8010,,25.641,1111122 
COMPS,ioos:station:USF.COMPS:FHP:1,2014-04-02T08:24:00Z,28.1530,-82.8010,,25.631,1111122 
COMPS,ioos:station:USF.COMPS:FHP:1,2014-04-02T08:30:00Z,28.1530,-82.8010,,25.635,1111122 
COMPS,ioos:station:USF.COMPS:FHP:1,2014-04-02T08:36:00Z,28.1530,-82.8010,,25.631,1111122 
COMPS,ioos:station:USF.COMPS:FHP:1,2014-04-02T08:42:00Z,28.1530,-82.8010,,25.303,1111122 
COMPS,ioos:station:USF.COMPS:FHP:1,2014-04-02T08:48:00Z,28.1530,-82.8010,,25.026,1111122 
COMPS,ioos:station:USF.COMPS:FHP:1,2014-04-02T08:54:00Z,28.1530,-82.8010,,24.956,1111122 
COMPS,ioos:station:USF.COMPS:FHP:1,2014-04-02T09:00:00Z,28.1530,-82.8010,,24.982,1111122 
COMPS,ioos:station:USF.COMPS:FHP:1,2014-04-02T09:06:00Z,28.1530,-82.8010,,24.964,1111122 
COMPS,ioos:station:USF.COMPS:FHP:1,2014-04-02T09:12:00Z,28.1530,-82.8010,,24.899,1111122 
COMPS,ioos:station:USF.COMPS:FHP:1,2014-04-02T09:18:00Z,28.1530,-82.8010,,24.884,1111122 
COMPS,ioos:station:USF.COMPS:FHP:1,2014-04-02T09:24:00Z,28.1530,-82.8010,,24.968,1111122 
COMPS,ioos:station:USF.COMPS:FHP:1,2014-04-02T09:30:00Z,28.1530,-82.8010,,24.882,1111122 
COMPS,ioos:station:USF.COMPS:FHP:1,2014-04-02T09:36:00Z,28.1530,-82.8010,,24.837,1111122 
COMPS,ioos:station:USF.COMPS:FHP:1,2014-04-02T09:42:00Z,28.1530,-82.8010,,24.845,1111122 
COMPS,ioos:station:USF.COMPS:FHP:1,2014-04-02T09:48:00Z,28.1530,-82.8010,,24.934,1111122 
COMPS,ioos:station:USF.COMPS:FHP:1,2014-04-02T09:54:00Z,28.1530,-82.8010,,25.154,1111122 
COMPS,ioos:station:USF.COMPS:FHP:1,2014-04-02T10:00:00Z,28.1530,-82.8010,,25.001,1111122 
COMPS,ioos:station:USF.COMPS:FHP:1,2014-04-02T10:06:00Z,28.1530,-82.8010,,24.898,1111122 
COMPS,ioos:station:USF.COMPS:FHP:1,2014-04-02T10:12:00Z,28.1530,-82.8010,,24.846,1111122 
COMPS,ioos:station:USF.COMPS:FHP:1,2014-04-02T10:18:00Z,28.1530,-82.8010,,24.798,1111122 
COMPS,ioos:station:USF.COMPS:FHP:1,2014-04-02T10:24:00Z,28.1530,-82.8010,,24.748,1111122 
COMPS,ioos:station:USF.COMPS:FHP:1,2014-04-02T10:30:00Z,28.1530,-82.8010,,24.746,1111122 
COMPS,ioos:station:USF.COMPS:FHP:1,2014-04-02T10:36:00Z,28.1530,-82.8010,,24.73,1111122 
COMPS,ioos:station:USF.COMPS:FHP:1,2014-04-02T10:42:00Z,28.1530,-82.8010,,24.691,1111122 
COMPS,ioos:station:USF.COMPS:FHP:1,2014-04-02T10:48:00Z,28.1530,-82.8010,,24.023,1111122 
COMPS,ioos:station:USF.COMPS:FHP:1,2014-04-02T10:54:00Z,28.1530,-82.8010,,22.138,1111122 
COMPS,ioos:station:USF.COMPS:FHP:1,2014-04-02T11:00:00Z,28.1530,-82.8010,,18.53,1111122 
COMPS,ioos:station:USF.COMPS:FHP:1,2014-04-02T11:06:00Z,28.1530,-82.8010,,9.101,1111122 
COMPS,ioos:station:USF.COMPS:FHP:1,2014-04-02T13:36:00Z,28.1530,-82.8010,,8.409,1111122 
COMPS,ioos:station:USF.COMPS:FHP:1,2014-04-02T13:42:00Z,28.1530,-82.8010,,20.869,1111122 
COMPS,ioos:station:USF.COMPS:FHP:1,2014-04-02T13:48:00Z,28.1530,-82.8010,,24.255,1111122 
COMPS,ioos:station:USF.COMPS:FHP:1,2014-04-02T13:54:00Z,28.1530,-82.8010,,24.938,1111122 
COMPS,ioos:station:USF.COMPS:FHP:1,2014-04-02T14:00:00Z,28.1530,-82.8010,,25.03,1111122 
COMPS,ioos:station:USF.COMPS:FHP:1,2014-04-02T14:06:00Z,28.1530,-82.8010,,25.057,1111122 
COMPS,ioos:station:USF.COMPS:FHP:1,2014-04-02T14:12:00Z,28.1530,-82.8010,,25.104,1111122 
COMPS,ioos:station:USF.COMPS:FHP:1,2014-04-02T14:18:00Z,28.1530,-82.8010,,25.153,1111122 
COMPS,ioos:station:USF.COMPS:FHP:1,2014-04-02T14:24:00Z,28.1530,-82.8010,,25.181,1111122 
COMPS,ioos:station:USF.COMPS:FHP:1,2014-04-02T14:30:00Z,28.1530,-82.8010,,25.193,1111122 
COMPS,ioos:station:USF.COMPS:FHP:1,2014-04-02T14:36:00Z,28.1530,-82.8010,,25.186,1111122 
COMPS,ioos:station:USF.COMPS:FHP:1,2014-04-02T14:42:00Z,28.1530,-82.8010,,25.185,1111122 
COMPS,ioos:station:USF.COMPS:FHP:1,2014-04-02T14:48:00Z,28.1530,-82.8010,,25.162,1111122 
COMPS,ioos:station:USF.COMPS:FHP:1,2014-04-02T14:54:00Z,28.1530,-82.8010,,25.152,1111122 
COMPS,ioos:station:USF.COMPS:FHP:1,2014-04-02T15:00:00Z,28.1530,-82.8010,,25.142,1111122 
COMPS,ioos:station:USF.COMPS:FHP:1,2014-04-02T15:06:00Z,28.1530,-82.8010,,25.139,1111122 
COMPS,ioos:station:USF.COMPS:FHP:1,2014-04-02T15:12:00Z,28.1530,-82.8010,,25.129,1111122 
COMPS,ioos:station:USF.COMPS:FHP:1,2014-04-02T15:18:00Z,28.1530,-82.8010,,25.129,1111122 
COMPS,ioos:station:USF.COMPS:FHP:1,2014-04-02T15:24:00Z,28.1530,-82.8010,,25.15,1111122 
COMPS,ioos:station:USF.COMPS:FHP:1,2014-04-02T15:30:00Z,28.1530,-82.8010,,25.155,1111122 
COMPS,ioos:station:USF.COMPS:FHP:1,2014-04-02T15:36:00Z,28.1530,-82.8010,,25.201,1111122 
COMPS,ioos:station:USF.COMPS:FHP:1,2014-04-02T15:42:00Z,28.1530,-82.8010,,25.24,1111122 
COMPS,ioos:station:USF.COMPS:FHP:1,2014-04-02T15:48:00Z,28.1530,-82.8010,,25.279,1111122 
COMPS,ioos:station:USF.COMPS:FHP:1,2014-04-02T15:54:00Z,28.1530,-82.8010,,25.268,1111122 
COMPS,ioos:station:USF.COMPS:FHP:1,2014-04-02T16:00:00Z,28.1530,-82.8010,,25.272,1111122 
COMPS,ioos:station:USF.COMPS:FHP:1,2014-04-02T16:06:00Z,28.1530,-82.8010,,25.258,1111122 
COMPS,ioos:station:USF.COMPS:FHP:1,2014-04-02T16:12:00Z,28.1530,-82.8010,,25.343,1111122 
COMPS,ioos:station:USF.COMPS:FHP:1,2014-04-02T16:18:00Z,28.1530,-82.8010,,25.35,1111122 
COMPS,ioos:station:USF.COMPS:FHP:1,2014-04-02T16:24:00Z,28.1530,-82.8010,,25.429,1111122 
COMPS,ioos:station:USF.COMPS:FHP:1,2014-04-02T16:30:00Z,28.1530,-82.8010,,25.504,1111122 
COMPS,ioos:station:USF.COMPS:FHP:1,2014-04-02T16:36:00Z,28.1530,-82.8010,,25.499,1111122 
COMPS,ioos:station:USF.COMPS:FHP:1,2014-04-02T16:42:00Z,28.1530,-82.8010,,25.545,1111122 
COMPS,ioos:station:USF.COMPS:FHP:1,2014-04-02T16:48:00Z,28.1530,-82.8010,,25.614,1111122 
COMPS,ioos:station:USF.COMPS:FHP:1,2014-04-02T16:54:00Z,28.1530,-82.8010,,25.638,1111122 
COMPS,ioos:station:USF.COMPS:FHP:1,2014-04-02T17:00:00Z,28.1530,-82.8010,,25.63,1111122 
COMPS,ioos:station:USF.COMPS:FHP:1,2014-04-02T17:06:00Z,28.1530,-82.8010,,25.623,1111122 